Zurück zum Katalog

COSMOS 1823 DEB

AktivLEO
NORAD 29358·DEBRIS·🇷🇺 Russia

Gestartet Feb 20, 1987 von Plesetsk Cosmodrome

Loading…

Nächste Überflüge (nächste 24 Stunden)

TLE

VeraltetSource: Space-Track

Epoche: Sep 4, 2026, 17:06 UTC

1 29358U 87020DZ  26247.71300086  .00036347  00000-0  11836-1 0  9993
2 29358  73.7943  21.7494 0017235  42.8587 317.3906 14.38432425608246

Verfolge COSMOS 1823 DEB in Echtzeit mit AllMySat

Download on the App Store